Hourly Data Report for May 15, 2021

WESTERN HEAD
NOVA SCOTIA
Current Station Operator: ECCC - MSC

43°59'24.070" N
64°39'51.008" W
10.10 m
8206240
71411
WWE

Download Data

Hourly Data (May 2021)
Hourly Data Report for May 15, 2021
TIME
LST
Temp Definition
°C
Dew Point Definition
°C
Rel Hum Definition
%
Precip. Amount Definition
mm

Wind Dir Definition
10's deg

Wind Spd Definition
km/h
Visibility Definition
km
Stn Press Definition
kPa
Hmdx Definition


Wind Chill Definition


Weather Definition


00:00 8.9 1.3 59 0.0 36 7   101.81     LegendNANA
01:00 7.8 4.6 80 0.0 1 7   101.79     LegendNANA
02:00 6.9 4.9 87 0.0 1 7   101.80     LegendNANA
03:00 6.4 5.1 91 0.0 36 7   101.81     LegendNANA
04:00 5.9 5.0 94 0.0 1 7   101.84     LegendNANA
05:00 5.8 5.1 95 0.0 35 8   101.90     LegendNANA
06:00 7.1 5.4 89 0.0 36 6   101.96     LegendNANA
07:00 9.1 5.3 77 0.0 36 8   102.02     LegendNANA
08:00 10.8 6.3 74 0.0 3 10   102.10     LegendNANA
09:00 11.7 6.0 68 0.0 4 7   102.16     LegendNANA
10:00 12.4 5.7 64 0.0 5 7   102.22     LegendNANA
11:00 12.4 6.2 66 0.0 7 10   102.23     LegendNANA
12:00 12.1 6.2 67 0.0 11 8   102.22     LegendNANA
13:00 11.6 5.5 66 0.0 15 9   102.23     LegendNANA
14:00 11.4 5.3 66 0.0 16 9   102.22     LegendNANA
15:00 11.1 4.8 65 0.0 16 8   102.21     LegendNANA
16:00 11.5 5.8 68 0.0 22 12   102.20     LegendNANA
17:00 10.7 6.2 74 0.0 21 12   102.20     LegendNANA
18:00 10.2 6.3 76 0.0 22 13   102.22     LegendNANA
19:00 9.4 5.6 77 0.0 22 16   102.23     LegendNANA
20:00 8.6 5.6 82 0.0 22 14   102.27     LegendNANA
21:00 8.1 6.0 87 0.0 22 14   102.29     LegendNANA
22:00 7.9 6.2 89 0.0 22 15   102.28     LegendNANA
23:00 7.4 6.0 91 0.0 22 12   102.28     LegendNANA

Notes on Data Quality.

Legend

  • E = Estimated
  • M = Missing
  • NA = Not Available*
  • [empty] = Indicates an unobserved value
Date modified: